Total_Precipitation_Accumulation
0.65 0.65 0.65 0.64 0.64 0.61 0.58 0.55 0.50 0.47 0.42 0.39 0.39 0.37 0.33 0.27 0.22 0.21 0.19 0.21 0.24 0.26 0.34 0.46 0.62 0.91 1.19 1.25 1.30 1.20 1.07 1.01 0.87 0.73 0.69 0.80 0.88 0.84 0.78 0.85 0.78 0.63 0.57
0.69 0.68 0.70 0.65 0.62 0.61 0.58 0.56 0.51 0.46 0.41 0.37 0.34 0.31 0.29 0.27 0.23 0.25 0.25 0.25 0.25 0.25 0.29 0.38 0.50 0.68 1.00 1.23 1.36 1.52 1.35 1.20 1.14 0.95 0.75 0.72 0.80 0.84 0.84 0.84 0.88 0.79 0.65
0.83 0.75 0.72 0.69 0.64 0.64 0.65 0.63 0.59 0.50 0.46 0.40 0.35 0.31 0.27 0.25 0.22 0.23 0.25 0.27 0.29 0.27 0.28 0.34 0.40 0.52 0.71 0.98 1.23 1.51 1.68 1.44 1.34 1.28 1.05 0.80 0.75 0.81 0.84 0.89 0.91 0.96 0.84
0.90 0.90 0.82 0.73 0.67 0.71 0.72 0.73 0.70 0.62 0.52 0.45 0.41 0.35 0.30 0.25 0.21 0.21 0.21 0.23 0.28 0.30 0.30 0.33 0.35 0.42 0.55 0.73 0.97 1.28 1.83 1.79 1.61 1.53 1.49 1.18 0.90 0.83 0.83 0.88 0.95 0.99 1.07
0.94 0.97 0.96 0.88 0.79 0.77 0.75 0.72 0.69 0.66 0.59 0.52 0.47 0.44 0.40 0.33 0.27 0.24 0.21 0.19 0.20 0.26 0.30 0.32 0.35 0.36 0.44 0.55 0.74 1.04 1.64 1.98 1.97 1.91 1.86 1.70 1.31 1.01 0.91 0.90 0.98 1.04 1.12
0.96 0.92 0.97 0.98 0.92 0.85 0.81 0.74 0.69 0.62 0.57 0.54 0.53 0.51 0.45 0.40 0.36 0.31 0.26 0.21 0.19 0.20 0.24 0.29 0.33 0.33 0.35 0.44 0.54 0.72 1.11 1.58 1.85 2.01 2.04 2.10 1.92 1.43 1.11 1.01 1.03 1.12 1.17
1.04 0.97 0.92 0.93 0.94 0.89 0.81 0.77 0.74 0.72 0.66 0.59 0.61 0.66 0.60 0.48 0.40 0.35 0.32 0.28 0.23 0.19 0.19 0.24 0.29 0.34 0.34 0.38 0.42 0.49 0.68 1.06 1.46 1.73 1.88 2.04 2.28 2.09 1.59 1.27 1.16 1.20 1.30
1.02 1.05 0.97 0.90 0.86 0.86 0.85 0.80 0.77 0.76 0.74 0.67 0.63 0.68 0.69 0.66 0.52 0.36 0.31 0.30 0.26 0.23 0.21 0.21 0.24 0.30 0.35 0.35 0.31 0.35 0.45 0.68 1.07 1.48 1.73 1.89 2.16 2.44 2.23 1.73 1.45 1.38 1.44
0.96 0.99 1.00 0.96 0.88 0.81 0.81 0.79 0.74 0.72 0.72 0.66 0.56 0.67 0.74 0.62 0.49 0.40 0.31 0.26 0.25 0.26 0.23 0.22 0.22 0.24 0.29 0.36 0.34 0.30 0.31 0.45 0.72 1.10 1.55 1.85 2.09 2.43 2.62 2.34 1.88 1.62 1.62
0.95 0.93 0.93 0.93 0.95 0.87 0.76 0.74 0.74 0.73 0.75 0.74 0.63 0.54 0.54 0.53 0.55 0.45 0.35 0.32 0.29 0.27 0.26 0.24 0.23 0.23 0.26 0.32 0.37 0.36 0.33 0.37 0.54 0.85 1.25 1.78 2.16 2.43 2.83 2.81 2.47 2.05 1.84
1.01 0.93 0.90 0.88 0.88 0.86 0.78 0.72 0.73 0.75 0.77 0.77 0.72 0.61 0.53 0.44 0.42 0.50 0.40 0.34 0.36 0.32 0.28 0.27 0.25 0.24 0.25 0.29 0.34 0.37 0.41 0.43 0.58 0.76 1.05 1.51 2.23 2.57 3.00 3.23 2.91 2.40 2.05
1.06 0.98 0.89 0.85 0.81 0.77 0.76 0.70 0.64 0.66 0.69 0.70 0.67 0.64 0.63 0.60 0.48 0.48 0.45 0.32 0.31 0.30 0.29 0.30 0.31 0.30 0.29 0.31 0.33 0.44 0.49 0.50 0.62 0.73 0.83 1.15 1.75 2.47 2.94 3.28 3.16 2.65 2.23
1.04 0.97 0.92 0.84 0.78 0.73 0.71 0.71 0.69 0.63 0.62 0.66 0.65 0.60 0.57 0.53 0.48 0.51 0.56 0.46 0.39 0.34 0.35 0.35 0.32 0.34 0.35 0.36 0.38 0.46 0.49 0.52 0.57 0.64 0.66 0.79 1.14 1.76 2.48 3.06 3.38 3.12 2.61
0.93 0.86 0.86 0.83 0.76 0.71 0.71 0.74 0.74 0.68 0.64 0.64 0.61 0.59 0.59 0.53 0.54 0.60 0.67 0.72 0.68 0.48 0.41 0.38 0.33 0.32 0.36 0.38 0.38 0.45 0.43 0.49 0.51 0.55 0.59 0.63 0.81 1.16 1.75 2.43 3.21 3.68 3.35
0.89 0.87 0.86 0.85 0.81 0.78 0.78 0.79 0.78 0.72 0.68 0.66 0.65 0.64 0.65 0.61 0.60 0.60 0.64 0.74 0.95 0.84 0.50 0.35 0.33 0.34 0.38 0.43 0.42 0.39 0.37 0.45 0.49 0.51 0.55 0.58 0.68 0.88 1.22 1.75 2.34 3.25 3.83
0.89 0.89 0.92 0.92 0.87 0.81 0.84 0.88 0.83 0.76 0.75 0.72 0.72 0.72 0.68 0.65 0.67 0.70 0.72 0.72 0.78 0.90 0.71 0.37 0.32 0.33 0.41 0.50 0.55 0.46 0.41 0.49 0.50 0.51 0.51 0.50 0.55 0.69 0.93 1.27 1.69 2.27 3.15
0.90 0.88 0.87 0.93 0.95 0.88 0.82 0.89 0.89 0.84 0.82 0.78 0.75 0.75 0.71 0.69 0.77 0.80 0.84 0.83 0.78 0.79 0.82 0.47 0.36 0.38 0.50 0.59 0.62 0.55 0.52 0.49 0.46 0.49 0.49 0.51 0.54 0.62 0.78 1.00 1.25 1.62 2.24
0.93 0.85 0.83 0.88 0.95 0.93 0.86 0.85 0.86 0.85 0.86 0.83 0.79 0.80 0.78 0.75 0.79 0.83 0.92 0.92 0.84 0.77 0.82 0.67 0.48 0.50 0.58 0.65 0.68 0.63 0.60 0.56 0.47 0.47 0.46 0.50 0.55 0.62 0.73 0.87 1.05 1.28 1.63
1.11 0.96 0.87 0.88 0.96 1.01 0.95 0.86 0.86 0.86 0.83 0.79 0.78 0.82 0.85 0.85 0.80 0.80 0.92 0.98 0.92 0.86 0.86 0.84 0.62 0.53 0.60 0.71 0.81 0.78 0.71 0.69 0.58 0.52 0.49 0.49 0.53 0.59 0.66 0.76 0.92 1.10 1.26
1.19 1.10 0.96 0.90 0.96 1.08 1.10 1.08 1.08 0.99 0.89 0.79 0.71 0.72 0.81 0.94 0.95 0.96 1.00 1.00 1.02 1.06 1.03 0.99 0.82 0.68 0.69 0.77 0.91 0.96 0.88 0.79 0.72 0.62 0.60 0.56 0.56 0.60 0.61 0.63 0.68 0.80 0.97
1.07 1.08 1.04 0.97 0.98 1.18 1.41 1.56 1.45 1.15 0.95 0.84 0.70 0.66 0.76 0.98 1.16 1.32 1.38 1.27 1.28 1.39 1.35 1.27 1.14 0.97 0.86 0.88 0.96 0.96 1.00 0.90 0.84 0.75 0.68 0.61 0.56 0.53 0.52 0.55 0.58 0.62 0.74
1.01 1.02 1.01 0.99 0.97 1.15 1.51 1.72 1.40 1.05 0.92 0.85 0.77 0.68 0.74 0.98 1.12 1.22 1.35 1.34 1.38 1.55 1.63 1.55 1.39 1.18 0.91 0.80 0.84 0.98 1.14 1.24 1.12 0.89 0.78 0.71 0.61 0.57 0.52 0.48 0.52 0.56 0.64
0.97 0.97 0.94 0.92 0.89 0.97 1.31 1.54 1.30 0.99 0.88 0.83 0.79 0.74 0.75 0.85 0.98 1.01 1.09 1.12 1.15 1.32 1.53 1.61 1.55 1.20 1.00 0.89 1.02 1.19 1.21 1.30 1.17 1.06 1.06 1.03 0.78 0.66 0.55 0.54 0.60 0.57 0.63
0.92 0.92 0.91 0.87 0.84 0.89 1.17 1.44 1.26 1.00 0.90 0.84 0.84 0.78 0.71 0.75 0.87 1.02 1.10 1.05 0.98 1.06 1.28 1.46 1.62 1.42 1.21 1.21 1.42 1.60 1.64 1.63 1.40 1.27 1.25 1.37 1.07 0.81 0.68 0.62 0.63 0.57 0.58
0.91 0.88 0.86 0.88 0.83 0.80 1.04 1.43 1.32 1.02 0.94 0.87 0.86 0.81 0.72 0.68 0.85 1.00 0.98 0.94 0.88 0.93 1.05 1.23 1.36 1.39 1.38 1.52 1.78 2.11 2.20 2.13 1.85 1.52 1.38 1.39 1.35 1.20 1.08 0.92 0.79 0.69 0.60
0.85 0.86 0.82 0.82 0.81 0.75 0.89 1.31 1.44 1.07 0.97 0.89 0.89 0.84 0.90 0.87 0.94 0.95 0.87 0.91 0.99 0.91 0.86 0.89 0.93 0.96 1.00 1.12 1.49 1.88 2.13 2.18 1.95 1.84 1.60 1.44 1.48 1.50 1.70 1.44 1.07 0.81 0.67